Flag for Morocco Weather past 2 weeks in Rabat, Morocco

Now
68 °F

Scattered clouds.


Feels Like: 68 °F
Forecast: 52 / 70 °F
Wind: 10 mph from Northwest

Location: Rabat-Sale


UV Index: 7 (High)

Visibility: N/A


Pressure: 30.18 "Hg

Humidity: 60%

Dew point: 54 °F

Location of RabatLocation

Historic Weather in Rabat

°F

Rabat temperature yesterday

Maximum temperature yesterday: 70 °F (at 3:00 PM)
Minimum temperature yesterday: 48 °F (at 4:30 AM)
Average temperature yesterday: 60 °F

Past Weeks' High & Low Weather Summary

 TemperatureHumidityPressure
High91 °F (Apr 9, 1:00 PM)100% (Apr 24, 6:00 AM)30.21 "Hg (Apr 24, 6:00 AM)
Low48 °F (Apr 23, 4:30 AM)17% (Apr 9, 1:00 PM)29.77 "Hg (Apr 13, 8:30 PM)
Average63 °F76%29.97 "Hg
* Reported Apr 9 1:00 PM — Apr 24 1:30 PM, Rabat, Weather by CustomWeather, © 2014

Note: Actual official high and low records may vary slightly from our data, if they occured in-between our weather recording intervals... More about our weather records

Advertising

Historic Weather Conditions — Data for Previous 24 hours

 ConditionsComfort  
Time TempWeatherWind HumidityBarometerVisibility
1:30 PM
Apr 24
70 °FScattered clouds.8 mph53%30.21 "HgN/A
1:00 PM70 °FScattered clouds.7 mph50%30.21 "HgN/A
12:30 PM68 °FScattered clouds.8 mph60%30.21 "HgN/A
12:00 PM66 °FScattered clouds.9 mph64%30.21 "HgN/A
11:30 AM66 °FScattered clouds.6 mph60%30.21 "HgN/A
11:00 AM66 °FScattered clouds.6 mph60%30.21 "HgN/A
10:30 AM64 °FScattered clouds.3 mph68%30.21 "HgN/A
10:00 AM64 °FScattered clouds.3 mph73%30.18 "HgN/A
9:00 AM61 °FScattered clouds.2 mph94%30.18 "HgN/A
8:30 AM61 °FScattered clouds.3 mph94%30.18 "HgN/A
8:00 AM57 °FFog.2 mph94%30.18 "Hg5 mi
7:30 AM54 °FFog.1 mph94%30.15 "Hg2 mi
7:00 AM54 °FFog.1 mph94%30.15 "Hg2 mi
6:30 AM54 °FScattered clouds.3 mph94%30.15 "Hg3 mi
6:00 AM52 °FPassing clouds.3 mph100%30.12 "Hg4 mi
5:30 AM52 °FPassing clouds.3 mph94%30.12 "Hg4 mi
5:00 AM50 °FPassing clouds.3 mph94%30.15 "Hg3 mi
4:30 AM48 °FCool.2 mph94%30.12 "Hg5 mi
4:00 AM48 °FPassing clouds.No wind94%30.15 "Hg5 mi
3:30 AM48 °FPassing clouds.No wind94%30.15 "HgN/A
3:00 AM50 °FPassing clouds.No wind88%30.15 "HgN/A
2:30 AM48 °FCool.2 mph94%30.15 "Hg4 mi
2:00 AM50 °FPassing clouds.3 mph88%30.15 "HgN/A
1:30 AM50 °FPassing clouds.2 mph94%30.15 "HgN/A
1:00 AM50 °FPassing clouds.1 mph94%30.18 "Hg4 mi
12:30 AM52 °FPassing clouds.2 mph88%30.18 "Hg4 mi
12:00 AM52 °FPassing clouds.2 mph94%30.18 "HgN/A
11:30 PM
Apr 23
54 °FPassing clouds.3 mph94%30.18 "HgN/A
11:00 PM54 °FPassing clouds.3 mph94%30.18 "HgN/A
10:30 PM57 °FPassing clouds.3 mph88%30.18 "HgN/A
10:00 PM57 °FPassing clouds.3 mph88%30.18 "HgN/A
9:30 PM59 °FPassing clouds.3 mph82%30.15 "HgN/A
9:00 PM61 °FPassing clouds.3 mph77%30.15 "HgN/A
8:30 PM61 °FPassing clouds.8 mph83%30.15 "HgN/A
8:00 PM63 °FPassing clouds.9 mph77%30.15 "HgN/A
7:30 PM64 °FPassing clouds.10 mph73%30.15 "HgN/A
7:00 PM66 °FScattered clouds.13 mph68%30.12 "HgN/A
6:30 PM66 °FScattered clouds.12 mph64%30.12 "HgN/A
6:00 PM68 °FPassing clouds.12 mph60%30.12 "HgN/A
5:30 PM68 °FPassing clouds.12 mph56%30.12 "HgN/A
5:00 PM68 °FPassing clouds.13 mph56%30.12 "HgN/A
4:30 PM68 °FPassing clouds.12 mph56%30.12 "HgN/A
4:00 PM68 °FPassing clouds.13 mph60%30.15 "HgN/A
3:30 PM70 °FPassing clouds.12 mph53%30.15 "HgN/A
3:00 PM70 °FPassing clouds.12 mph60%30.15 "HgN/A
2:00 PM68 °FPassing clouds.10 mph64%30.18 "HgN/A
Weather by CustomWeather, © 2014

See weather overview